Location: Fauquembergues
(50.6005°N, 2.0987°E)
Time: 21:15:15
(UTC+00:00)

Meteor 1-19 Rocket - Pass Details

Date: 26 October 2020
Orbit: 809 x 926 km, 81.2° (Epoch: 03 December)

Event Time Altitude Azimuth Distance (km) Brightness Sun altitude
Exits shadow 00:58:29 11° 14° (NNE) 2,559 7.2 -48.4°
Drops below altitude 10° 00:58:42 10° 14° (NNE) 2,641 7.2 -48.3°
Sets 01:01:12 0° 14° (NNE) 3,587 8.1 -48.1°
